Regional Weather Roundup
Issued by NWS

Home | Current Version | Previous Version | Graphics & Text | Print | Product List | Glossary On
Versions: 1 2 3 4 5 6 7 8 9 10 11 12 13 14 15 16 17 18 19 20 21 22 23 24 25 26 27 28 29 30 31 32 33 34 35 36 37 38 39 40 41 42 43 44 45 46 47 48 49 50
077
ASUS43 KFSD 101110
RWRSD

WEATHER ROUNDUP FOR SOUTH DAKOTA
NATIONAL WEATHER SERVICE SIOUX FALLS SD
500 AM CST WED FEB 10 2016

NOTE: "FAIR" INDICATES FEW OR NO CLOUDS BELOW 12,000 FEET WITH NO
SIGNIFICANT WEATHER AND/OR OBSTRUCTIONS TO VISIBILITY.


SDZ001>005-009-010-012>017-101200-
NORTHWEST AND NORTH CENTRAL SOUTH DAKOTA

CITY           SKY/WX    TMP DP  RH WIND       PRES   REMARKS
BUFFALO          N/A     32  24  72 W14       29.79F WCI  22
FAITH            N/A     34  25  69 W14       29.84F WCI  25
MOBRIDGE       CLOUDY    22  17  81 SE10      29.85F WCI  11
$$

SDZ012>016-024>037-041>051-057-063-072>074-101200-
SOUTHWEST AND SOUTH CENTRAL SOUTH DAKOTA

CITY           SKY/WX    TMP DP  RH WIND       PRES   REMARKS
RAPID CTY ARPT CLEAR     32  23  69 NW5       29.88F WCI  27
PIERRE         CLOUDY    25  22  88 S7        29.88F WCI  17
CUSTER         CLEAR     45  15  30 W15G29    29.96F
ELLSWORTH AFB  CLEAR     35  23  62 NW6       29.87F
PHILIP         CLEAR     31  27  85 W10       29.88F WCI  22
PINE RIDGE     CLEAR     32  23  69 W5        29.97F WCI  27
SPEARFISH      FAIR      50  19  29 W13G24    29.94S
WINNER         FAIR      28  23  81 S6        29.89F WCI  22
$$

SDZ004>011-016>023-039-040-101200-
NORTHEAST SOUTH DAKOTA

CITY           SKY/WX    TMP DP  RH WIND       PRES   REMARKS
ABERDEEN       LGT SNOW  18  13  80 E8        30.00F WCI   8
WATERTOWN      LGT SNOW  12   7  80 SE8       29.99F WCI   0
BROOKINGS      LGT SNOW  13   9  84 E12       30.00F FOG     WCI  -1
SISSETON         N/A      9   5  84 SE6       30.05F WCI  -1
$$

SDZ017-020-022-023-036>040-048>070-101200-
SOUTHEAST SOUTH DAKOTA

CITY           SKY/WX    TMP DP  RH WIND       PRES   REMARKS
SIOUX FALLS    LGT SNOW  19  15  84 E8        30.01F FOG     WCI   9
HURON          CLOUDY    22  19  89 SE14      29.96F WCI   9
CHAMBERLAIN    CLOUDY    24  22  91 SE5       29.91F WCI  18
MITCHELL       CLOUDY    25  18  74 SE13      29.97F WCI  14
YANKTON        CLOUDY    21  16  79 E10       30.00F WCI  10
$$

ABBREVIATIONS USED IN REMARKS
   TC - TEMPERATURE IN CELSIUS
  WCI - WIND CHILL INDEX
   HX - HEAT INDEX
  VSB - VISIBILITY





USA.gov is the U.S. government's official web portal to all federal, state and local government web resources and services.